Location: Newark
(34.9471°N, 136.1778°E)
Time: 01:13:59
(UTC+00:00)

METEOR M2 - Pass Details

Date: 25 February 2020
Orbit: 818 x 827 km, 98.5° (Epoch: 28 March)

Event Time Altitude Azimuth Distance (km) Brightness Sun altitude
Exits shadow 10:31:53 24° 155° (SSE) 1,631 ? -22.3°
Maximum altitude 10:35:08 73° 75° (ENE) 865 ? -23.0°
Drops below altitude 10° 10:40:31 10° 352° (N) 2,436 ? -24.1°
Sets 10:42:53 0° 350° (N) 3,373 ? -24.6°
